Location: M�nchen
(48.1404°N, 11.6043°E)
Time: 07:44:01
(UTC+02:00)

nSIGHT-1 - Visible Passes

Search period start: 22 September 2018 00:00
Search period end: 02 October 2018 00:00
Orbit: 376 x 381 km, 51.6° (Epoch: 20 September)

Date Brightness Start Highest point End Pass type
(mag) Time Alt. Az. Time Alt. Az. Time Alt. Az.
22 Sep ? 19:51:18 10° SSW 19:54:11 34° SE 19:56:59 11° E visible
22 Sep ? 21:26:54 10° W 21:29:07 39° WNW 21:29:07 39° WNW visible
23 Sep ? 20:26:12 10° WSW 20:29:20 89° NNW 20:31:01 25° ENE visible
23 Sep ? 22:02:27 10° WNW 22:03:09 15° WNW 22:03:09 15° WNW visible
24 Sep ? 21:01:38 10° W 21:04:41 48° NNW 21:04:56 47° N visible
25 Sep ? 20:00:50 10° WSW 20:03:58 68° NNW 20:06:39 13° ENE visible
25 Sep ? 21:37:09 10° WNW 21:38:46 25° NW 21:38:46 25° NW visible
26 Sep ? 20:36:19 10° W 20:39:20 43° N 20:40:25 30° NE visible
26 Sep ? 22:12:28 10° WNW 22:12:31 10° WNW 22:12:31 10° WNW visible
27 Sep ? 19:35:27 10° W 19:38:32 54° NNW 19:41:38 10° ENE visible
27 Sep ? 21:11:44 10° WNW 21:14:07 37° NNW 21:14:07 37° NNW visible
28 Sep ? 20:10:54 10° WNW 20:13:55 41° N 20:15:41 20° ENE visible
28 Sep ? 21:46:58 10° WNW 21:47:48 17° WNW 21:47:48 17° WNW visible
29 Sep ? 20:46:13 10° WNW 20:49:17 48° N 20:49:21 48° NNE visible
30 Sep ? 19:45:25 10° WNW 19:48:25 41° N 19:50:53 14° ENE visible
30 Sep ? 21:21:23 10° WNW 21:22:59 27° WNW 21:22:59 27° WNW visible
01 Oct ? 20:20:37 10° WNW 20:23:43 57° NNE 20:24:32 41° ENE visible
